ASTERISC (49395 NORAD) Tracking and Keplerian Element Data

This shows tracking and keplerian element data for the satellite.

Feedback or suggestion? Click here.




ElementValue
Catalog49395
NameASTERISC
Epoch Orbit1020
Epoch Day16.12907792
Epoch Year2022
RAAN78.7904
Inclination97.5688
Eccentricity0.0014624
Argument of Perigee42.2103
Mean Anonmoly318.0244
Mean Motion15.00005989
Decay Rate3.407E-05
L11 49395U 21102A 22016.12907792 .00003407 00000+0 27798-3 0 9993
L22 49395 97.5688 78.7904 0014624 42.2103 318.0244 15.00005989 10201

Live tracking and technical data element details for ASTERISC (NORAD 49395). ASTERISC can be tracked NOW for your location showing map with azimuth and elevation plus other details from your city location.

Track the satellite on the map from your city or location and see movement details for azimuth, elevation, latitude, longitude, range, height, and movement on the map or in text.







IsCatalogInMostPopularTable: catalog: 49395, numindb: 6
Update: records affected: 1



GetName: 49395 ASTERISC

Hit Count: updated at: Thu, 20 Jan 2022 17:46:05 GMT